Location: Peterborough
(44.3091°N, 78.3197°W)
Time: 16:24:09
(UTC-04:00)

Transit 2A Rocket - Pass Details

Date: 28 March 2023
Orbit: 584 x 914 km, 66.7° (Epoch: 04 June)

Event Time Altitude Azimuth Distance (km) Brightness Sun altitude
Rises 19:09:44 0° 332° (NNW) 3,554 8.9 3.8°
Reaches altitude 10° 19:12:36 10° 343° (NNW) 2,613 8.0 3.2°
Maximum altitude 19:17:57 31° 43° (NE) 1,552 6.3 2.3°
Drops below altitude 10° 19:23:08 10° 104° (ESE) 2,531 7.1 1.4°
Sets 19:25:52 0° 115° (ESE) 3,427 7.8 0.9°
